INTELSAT 33E DEB, 64394

Orbit data source: Space-Track

INTELSAT 33E DEB, 64394 is space debris in GEO originally from a launch on Wed, 24 Aug 2016 UTC launched from the French Guiana (FRGUI). Debris objects in space refer to the collection of defunct objects orbiting the Earth. Examples of debris include non-operational satellites, rocket bodies, and fragments generated from explosions, collisions, or faulty payload assembly.

Not visible in the next 10 days
Identifier
64394, 2016-053Y
Orbit
GEO
Country
Flag of USUS / ITSO
Related business
Manufacturer
Boeing/ES
Mission
Spacecraft
Bus & Motor
Unknown
Mass
Unknown
Launch date (UTC)
2016-08-24 (10 years ago)
Launch vehicle
Unknown
Launch site
French Guiana (FRGUI)
Object type
Payload
Rocket body
Debris
Shape & HBR
Unknown shape, 1.1 m
Radar Cross Section
RCS unknown

Expand to show TLE details & history
Last TLE update: 2 days ago

TLE from 2 days ago
0 INTELSAT 33E DEB
1 64394U 16053Y   26164.54426377 -.00000108  00000-0  00000-0 0  9998
2 64394   1.3213  44.0779 0622876 339.7309  17.1193  1.08358216  6400
Epoch: 2026-06-13T13:03Z
TLE epoch observation values (Epoch: 2026-06-13T13:03:44.389Z)
Latitude
Longitude
-54.64108°
Altitude
31,292.329 km
Speed
3.348 km/s
True Right ascension
02h 52m 36s
True Declination
0° 00' 00"
Sunlit
Object was in daylight at epoch
Visualization orbit readout
Latitude
Unknown
Longitude
Unknown
Altitude
Unknown
Speed
Unknown
Apparent Right ascension
Unknown
Apparent Declination
Unknown
Sunlit
N/A
Visualization observer readout
Local Sidereal Time
02:33:37
Azimuth
Unknown
Elevation
Unknown
Doppler factor
Unknown
Orbital elements
Apogee altitude
36,157.047 km
Perigee altitude
31,168.916 km
Semi-major axis
40,041.119 km
Eccentricity
0.06229
Inclination
1.3213°
RAAN
44.0779°
Arg. of periapsis
339.7309°
True anomaly
19.38806°
Mean anomaly
17.1193°
Eccentric anomaly
18.2361°
Mean motion
0.27088 °/min
Orbital period
1,328.98 mins
BSTAR
0
Loading maneuver chart data...
Computing Atmospheric mass density...
Loading historical data...
Loading historical data...
Loading historical data...
Loading historical data...
Loading historical data...
Loading historical data...
Loading historical data...

Documentation

Showing up to 5 results
|